TimeCDT,TemperatureF,Dew PointF,Humidity,Sea Level PressureIn,VisibilityMPH,Wind Direction,Wind SpeedMPH,Gust SpeedMPH,PrecipitationIn,Events,Conditions,WindDirDegrees,DateUTC
12:53 AM,72.0,71.1,97,29.93,10.0,Calm,Calm,-,N/A,,Clear,0,2013-08-14 05:53:00
1:53 AM,72.0,71.1,97,29.94,10.0,Calm,Calm,-,N/A,,Clear,0,2013-08-14 06:53:00
2:53 AM,72.0,70.0,93,29.94,10.0,Calm,Calm,-,N/A,,Partly Cloudy,0,2013-08-14 07:53:00
3:53 AM,72.0,71.1,97,29.94,10.0,North,3.5,-,N/A,,Mostly Cloudy,360,2013-08-14 08:53:00
4:53 AM,72.0,70.0,93,29.95,10.0,Calm,Calm,-,N/A,,Mostly Cloudy,0,2013-08-14 09:53:00
5:03 AM,71.6,69.8,94,29.96,10.0,North,3.5,-,N/A,,Mostly Cloudy,360,2013-08-14 10:03:00
5:21 AM,73.4,69.8,88,29.96,10.0,Calm,Calm,-,N/A,,Overcast,0,2013-08-14 10:21:00
5:53 AM,72.0,71.1,97,29.95,10.0,NNW,3.5,-,N/A,,Overcast,340,2013-08-14 10:53:00
6:29 AM,73.4,71.6,94,29.96,8.0,NE,3.5,-,0.04,Rain,Light Rain,50,2013-08-14 11:29:00
6:53 AM,73.0,71.1,93,29.95,10.0,NNW,3.5,-,0.05,Rain,Light Rain,330,2013-08-14 11:53:00
7:02 AM,71.6,71.6,100,29.97,1.8,NNW,3.5,-,0.11,Rain,Rain,330,2013-08-14 12:02:00
7:12 AM,71.6,71.6,100,29.97,2.0,North,4.6,-,0.19,Rain,Rain,360,2013-08-14 12:12:00
7:20 AM,71.6,71.6,100,29.97,10.0,NNW,3.5,-,0.19,Rain,Light Rain,340,2013-08-14 12:20:00
7:25 AM,71.6,71.6,100,29.97,10.0,NNW,4.6,-,0.19,Thunderstorm,Overcast,330,2013-08-14 12:25:00
7:39 AM,71.6,71.6,100,29.98,10.0,NNE,3.5,-,0.19,Thunderstorm,Overcast,20,2013-08-14 12:39:00
7:53 AM,73.0,71.1,93,29.97,10.0,North,3.5,-,0.19,,Overcast,10,2013-08-14 12:53:00
8:03 AM,73.4,71.6,94,29.98,10.0,Calm,Calm,-,N/A,,Overcast,0,2013-08-14 13:03:00
8:42 AM,73.4,71.6,94,30.00,9.0,Calm,Calm,-,0.00,Rain,Light Rain,0,2013-08-14 13:42:00
8:51 AM,73.4,71.6,94,30.00,10.0,Calm,Calm,-,0.00,,Overcast,0,2013-08-14 13:51:00
8:53 AM,73.0,72.0,96,29.99,9.0,Calm,Calm,-,0.00,,Overcast,0,2013-08-14 13:53:00
9:35 AM,73.4,71.6,94,30.01,8.0,Calm,Calm,-,0.01,,Overcast,0,2013-08-14 14:35:00
9:53 AM,73.9,72.0,93,29.99,10.0,ENE,3.5,-,0.01,,Overcast,60,2013-08-14 14:53:00
10:16 AM,75.2,71.6,89,30.02,1.5,Calm,Calm,-,0.04,Rain,Heavy Rain,0,2013-08-14 15:16:00
10:30 AM,75.2,73.4,94,30.01,3.0,Calm,Calm,-,0.08,Rain,Light Rain,0,2013-08-14 15:30:00
10:45 AM,75.2,73.4,94,30.01,8.0,SSE,3.5,-,0.08,,Mostly Cloudy,150,2013-08-14 15:45:00
10:53 AM,75.0,73.0,94,30.00,7.0,SSE,4.6,-,0.08,,Overcast,160,2013-08-14 15:53:00
11:07 AM,75.2,73.4,94,30.02,9.0,SSW,5.8,-,N/A,,Overcast,200,2013-08-14 16:07:00
11:16 AM,73.4,73.4,100,30.03,1.8,WSW,5.8,-,0.05,Rain,Light Rain,240,2013-08-14 16:16:00
11:24 AM,73.4,73.4,100,30.02,0.5,Calm,Calm,-,0.19,Fog-Rain,Heavy Rain,0,2013-08-14 16:24:00
11:38 AM,73.4,73.4,100,30.03,0.8,West,3.5,-,0.35,Rain,Heavy Rain,260,2013-08-14 16:38:00
11:48 AM,73.4,73.4,100,30.02,1.0,SSW,4.6,-,0.43,Rain,Heavy Rain,200,2013-08-14 16:48:00
11:51 AM,73.4,73.4,100,30.02,1.0,SSW,4.6,-,0.45,Rain,Heavy Rain,210,2013-08-14 16:51:00
11:53 AM,73.9,73.0,97,30.00,1.0,SW,4.6,-,0.45,Rain,Heavy Rain,220,2013-08-14 16:53:00
12:03 PM,73.4,73.4,100,30.02,3.0,Calm,Calm,-,0.02,Rain,Rain,0,2013-08-14 17:03:00
12:11 PM,73.4,73.4,100,30.01,6.0,SW,3.5,-,0.02,Rain,Light Rain,220,2013-08-14 17:11:00
12:50 PM,75.2,73.4,94,30.00,10.0,WSW,3.5,-,0.02,,Overcast,240,2013-08-14 17:50:00
12:53 PM,75.9,73.0,91,29.98,10.0,Calm,Calm,-,0.02,,Overcast,0,2013-08-14 17:53:00
1:37 PM,77.0,73.4,89,29.98,10.0,WNW,3.5,-,N/A,,Overcast,300,2013-08-14 18:37:00
1:53 PM,79.0,73.9,84,29.96,10.0,Calm,Calm,-,N/A,,Mostly Cloudy,0,2013-08-14 18:53:00
2:53 PM,81.0,73.9,79,29.94,10.0,West,4.6,-,0.01,,Partly Cloudy,260,2013-08-14 19:53:00
3:25 PM,82.4,73.4,74,29.95,10.0,South,4.6,-,N/A,,Mostly Cloudy,170,2013-08-14 20:25:00
3:53 PM,82.0,73.9,76,29.93,10.0,South,4.6,-,N/A,,Overcast,190,2013-08-14 20:53:00
4:49 PM,82.4,75.2,79,29.94,10.0,South,4.6,-,N/A,,Scattered Clouds,190,2013-08-14 21:49:00
4:53 PM,81.0,75.0,82,29.93,10.0,SSW,3.5,-,N/A,,Scattered Clouds,210,2013-08-14 21:53:00
5:03 PM,80.6,75.2,84,29.95,10.0,South,4.6,-,N/A,Thunderstorm,Partly Cloudy,190,2013-08-14 22:03:00
5:25 PM,78.8,75.2,89,29.95,2.5,North,8.1,-,0.03,Rain-Thunderstorm,Heavy Rain,360,2013-08-14 22:25:00
5:33 PM,77.0,75.2,94,29.95,2.5,North,4.6,-,0.07,Rain-Thunderstorm,Heavy Rain,350,2013-08-14 22:33:00
5:40 PM,75.2,73.4,94,29.95,1.2,North,11.5,-,0.13,Rain-Thunderstorm,Rain,10,2013-08-14 22:40:00
5:48 PM,73.4,71.6,94,29.96,0.5,East,5.8,-,0.42,Fog-Rain-Thunderstorm,Heavy Rain,80,2013-08-14 22:48:00
5:53 PM,73.9,72.0,93,29.94,0.5,SE,3.5,-,0.59,Fog-Rain,Heavy Rain,130,2013-08-14 22:53:00
5:58 PM,75.2,71.6,89,29.95,2.0,SSE,4.6,-,0.00,Rain,Light Rain,160,2013-08-14 22:58:00
6:05 PM,73.4,71.6,94,29.95,10.0,Variable,3.5,-,0.00,Rain,Light Rain,0,2013-08-14 23:05:00
6:16 PM,75.2,73.4,94,29.95,8.0,ENE,3.5,-,0.00,Thunderstorm,Partly Cloudy,60,2013-08-14 23:16:00
6:31 PM,75.2,73.4,94,29.95,10.0,Calm,Calm,-,0.00,,Clear,0,2013-08-14 23:31:00
6:53 PM,75.9,73.9,94,29.94,6.0,WSW,3.5,-,0.00,,Clear,250,2013-08-14 23:53:00
7:53 PM,75.0,73.0,94,29.94,10.0,Calm,Calm,-,N/A,,Partly Cloudy,0,2013-08-15 00:53:00
8:34 PM,73.4,73.4,100,29.96,10.0,West,3.5,-,N/A,,Mostly Cloudy,280,2013-08-15 01:34:00
8:42 PM,73.4,73.4,100,29.96,2.5,Calm,Calm,-,N/A,,Mostly Cloudy,0,2013-08-15 01:42:00
8:46 PM,73.4,73.4,100,29.96,0.8,Calm,Calm,-,N/A,,Mostly Cloudy,0,2013-08-15 01:46:00
8:53 PM,73.9,73.0,97,29.95,0.8,West,3.5,-,N/A,,Mist,280,2013-08-15 01:53:00
8:58 PM,73.4,73.4,100,29.97,2.0,Calm,Calm,-,N/A,,Overcast,0,2013-08-15 01:58:00
9:06 PM,73.4,73.4,100,29.97,10.0,Calm,Calm,-,N/A,,Overcast,0,2013-08-15 02:06:00
9:14 PM,73.4,71.6,94,29.97,10.0,Calm,Calm,-,N/A,,Overcast,0,2013-08-15 02:14:00
9:53 PM,73.9,72.0,93,29.98,10.0,NW,3.5,-,N/A,,Mostly Cloudy,310,2013-08-15 02:53:00
10:53 PM,73.9,72.0,93,29.98,10.0,North,3.5,-,N/A,,Partly Cloudy,350,2013-08-15 03:53:00
11:53 PM,75.0,73.0,94,29.98,10.0,Calm,Calm,-,N/A,,Clear,0,2013-08-15 04:53:00